DW3225 Weather Reports


time (UTC)temp
C
wind
direction
speed
KPH
gust
KPH
rain 1hr
cm
rain 24hr
cm
rain mn
cm
humidity
%
barometer
mb
20260507160005 15 239 4.8 16.1 0.00 0.00 0.00 59 1015.7
20260507155504 15 228 4.8 16.1 0.00 0.00 0.00 60 1015.8
20260507155004 14 222 4.8 20.9 0.00 0.00 0.00 59 1015.9
20260507154504 15 257 4.8 20.9 0.00 0.00 0.00 59 1015.9
20260507154005 14 235 4.8 20.9 0.00 0.00 0.00 60 1015.9
20260507153005 15 254 3.2 14.5 0.00 0.00 0.00 59 1016.1
20260507152505 14 247 3.2 16.1 0.00 0.00 0.00 62 1016.1
20260507152005 14 237 4.8 16.1 0.00 0.00 0.00 60 1016.0
20260507151504 13 252 6.4 19.3 0.00 0.00 0.00 61 1016.3
20260507150505 13 234 4.8 16.1 0.00 0.00 0.00 61 1016.3
20260507150006 13 293 4.8 19.3 0.00 0.00 0.00 61 1016.3
20260507145005 13 269 4.8 16.1 0.00 0.00 0.00 63 1016.3
20260507144505 13 284 4.8 20.9 0.00 0.00 0.00 63 1016.3
20260507144005 13 222 4.8 20.9 0.00 0.00 0.00 62 1016.3
20260507143505 13 239 6.4 20.9 0.00 0.00 0.00 64 1016.3
20260507143005 13 234 4.8 19.3 0.00 0.00 0.00 65 1016.3
20260507142505 12 244 4.8 19.3 0.00 0.00 0.00 66 1016.3
20260507142005 12 252 6.4 19.3 0.00 0.00 0.00 66 1016.3
20260507141504 12 225 6.4 11.3 0.00 0.00 0.00 68 1016.3
20260507141006 12 229 4.8 11.3 0.00 0.00 0.00 69 1016.4
20260507140505 12 232 3.2 11.3 0.00 0.00 0.00 69 1016.5
20260507135505 11 229 4.8 14.5 0.00 0.00 0.00 70 1016.6
20260507135005 11 272 4.8 14.5 0.00 0.00 0.00 70 1016.5
20260507134505 11 249 4.8 19.3 0.00 0.00 0.00 71 1016.5
20260507134004 11 239 4.8 19.3 0.00 0.00 0.00 71 1016.5
20260507133504 11 240 4.8 16.1 0.00 0.00 0.00 71 1016.6
20260507133004 11 238 4.8 16.1 0.00 0.00 0.00 71 1016.5
20260507132504 10 282 3.2 12.9 0.00 0.00 0.00 73 1016.5
20260507132005 10 244 4.8 14.5 0.00 0.00 0.00 73 1016.5
20260507131505 10 230 3.2 14.5 0.00 0.00 0.00 73 1016.5
20260507131005 10 229 3.2 11.3 0.00 0.00 0.00 74 1016.6
20260507130505 10 232 3.2 11.3 0.00 0.00 0.00 74 1016.7
20260507130005 9 235 3.2 11.3 0.00 0.00 0.00 75 1016.7
20260507125506 9 234 3.2 11.3 0.00 0.00 0.00 75 1016.8
20260507124504 8 233 3.2 4.8 0.00 0.00 0.00 76 1016.8
20260507124005 8 235 3.2 4.8 0.00 0.00 0.00 76 1016.7
20260507123505 8 220 1.6 4.8 0.00 0.00 0.00 76 1016.7
20260507123005 7 227 1.6 4.8 0.00 0.00 0.00 77 1016.7
20260507122505 7 212 1.6 4.8 0.00 0.00 0.00 77 1016.7
20260507122005 7 228 3.2 4.8 0.00 0.00 0.00 77 1016.7
20260507121504 7 212 1.6 4.8 0.00 0.00 0.00 77 1016.7
20260507121005 7 218 1.6 4.8 0.00 0.00 0.00 77 1016.8
20260507120505 7 213 1.6 4.8 0.00 0.00 0.00 77 1016.7
20260507120005 7 216 1.6 4.8 0.00 0.00 0.00 77 1016.7
20260507115504 7 214 3.2 4.8 0.00 0.00 0.00 77 1016.6
20260507115005 7 216 1.6 4.8 0.00 0.00 0.00 77 1016.5
20260507114505 7 215 1.6 4.8 0.00 0.00 0.00 77 1016.5
20260507113504 7 228 1.6 4.8 0.00 0.00 0.00 77 1016.5
20260507113005 7 217 1.6 4.8 0.00 0.00 0.00 77 1016.5
20260507112505 7 218 1.6 4.8 0.00 0.00 0.00 76 1016.5
20260507112005 7 214 1.6 3.2 0.00 0.00 0.00 75 1016.4
20260507111506 7 221 1.6 3.2 0.00 0.00 0.00 74 1016.5
20260507111004 7 208 1.6 3.2 0.00 0.00 0.00 74 1016.5
20260507110505 7 207 1.6 3.2 0.00 0.00 0.00 73 1016.5
20260507105505 7 208 3.2 4.8 0.00 0.00 0.00 73 1016.4
20260507105004 7 219 1.6 4.8 0.00 0.00 0.00 73 1016.4
20260507104005 7 220 1.6 4.8 0.00 0.00 0.00 72 1016.4
20260507103005 7 233 3.2 4.8 0.00 0.00 0.00 71 1016.5
20260507102504 7 224 3.2 4.8 0.00 0.00 0.00 71 1016.5
20260507102006 7 231 1.6 4.8 0.00 0.00 0.00 72 1016.5
20260507101504 7 222 1.6 4.8 0.00 0.00 0.00 72 1016.4
20260507100505 7 221 1.6 4.8 0.00 0.00 0.00 72 1016.4
20260507100005 7 219 1.6 4.8 0.00 0.00 0.00 73 1016.5
20260507095505 7 223 3.2 4.8 0.00 0.00 0.00 73 1016.5
20260507095005 7 225 1.6 4.8 0.00 0.00 0.00 72 1016.6
20260507094505 7 216 1.6 4.8 0.00 0.00 0.00 72 1016.7
20260507094005 7 230 1.6 4.8 0.00 0.00 0.00 71 1016.7
20260507093504 7 227 1.6 4.8 0.00 0.00 0.00 70 1016.8
20260507093004 7 221 1.6 4.8 0.00 0.00 0.00 69 1016.7
20260507092504 7 228 3.2 4.8 0.00 0.00 0.00 69 1016.7
20260507092004 7 232 1.6 4.8 0.00 0.00 0.00 69 1016.7
20260507091504 7 233 1.6 4.8 0.00 0.00 0.00 69 1016.7
20260507091005 7 226 1.6 4.8 0.00 0.00 0.00 70 1016.8
20260507090505 7 230 1.6 4.8 0.00 0.00 0.00 70 1016.8
20260507090005 7 217 1.6 4.8 0.00 0.00 0.00 71 1016.7
20260507085504 7 227 1.6 4.8 0.00 0.00 0.00 70 1016.7
20260507085005 7 229 1.6 4.8 0.00 0.00 0.00 70 1016.7
20260507084504 7 223 1.6 4.8 0.00 0.00 0.00 70 1016.7
20260507084004 7 219 1.6 4.8 0.00 0.00 0.00 71 1016.7
20260507083504 7 224 1.6 4.8 0.00 0.00 0.00 71 1016.8
20260507082504 7 230 3.2 11.3 0.00 0.00 0.00 72 1016.8
20260507082005 7 229 3.2 11.3 0.00 0.00 0.00 73 1016.9
20260507081504 7 230 3.2 4.8 0.00 0.00 0.00 73 1016.8
20260507081004 7 228 3.2 4.8 0.00 0.00 0.00 73 1016.8
20260507080005 7 230 3.2 4.8 0.00 0.00 0.00 74 1016.7
20260507075504 7 230 3.2 4.8 0.00 0.00 0.00 73 1016.7
20260507075005 7 230 1.6 4.8 0.00 0.00 0.00 73 1016.8
20260507074504 8 230 1.6 3.2 0.00 0.00 0.00 72 1016.8
20260507074004 8 230 1.6 3.2 0.00 0.00 0.00 71 1016.8
20260507073504 8 230 1.6 3.2 0.00 0.00 0.00 70 1016.8
20260507072004 8 230 3.2 4.8 0.00 0.00 0.00 67 1016.9
20260507071504 9 230 3.2 4.8 0.00 0.00 0.00 66 1017.0
20260507071004 9 231 3.2 8.0 0.00 0.00 0.00 65 1017.1
20260507065505 9 234 3.2 8.0 0.00 0.03 0.00 63 1017.4
20260507065004 9 239 3.2 8.0 0.00 0.03 0.00 63 1017.5
20260507064004 9 232 3.2 4.8 0.00 0.03 0.00 63 1017.5
20260507063505 9 232 3.2 8.0 0.00 0.03 0.00 63 1017.5
20260507063004 9 234 3.2 8.0 0.00 0.03 0.00 64 1017.5
20260507062504 9 235 3.2 4.8 0.00 0.03 0.00 64 1017.5
20260507062005 9 234 1.6 8.0 0.00 0.03 0.00 63 1017.5
20260507061504 9 234 3.2 8.0 0.00 0.03 0.00 63 1017.6
20260507061004 9 234 3.2 8.0 0.00 0.03 0.00 62 1017.5
20260507060504 9 234 1.6 4.8 0.00 0.03 0.00 63 1017.5
20260507060004 9 234 1.6 8.0 0.00 0.03 0.00 62 1017.5
20260507055504 9 234 3.2 8.0 0.00 0.03 0.00 62 1017.5
20260507055005 9 242 1.6 8.0 0.00 0.03 0.00 62 1017.6
20260507054505 9 242 1.6 8.0 0.00 0.03 0.00 61 1017.6
20260507054004 9 242 3.2 8.0 0.00 0.03 0.00 61 1017.7
20260507053504 9 267 1.6 4.8 0.00 0.03 0.00 61 1017.6
20260507053005 9 267 3.2 4.8 0.00 0.03 0.00 60 1017.6
20260507052504 9 267 1.6 4.8 0.00 0.03 0.00 60 1017.6
20260507052004 9 267 3.2 4.8 0.00 0.03 0.00 59 1017.6
20260507051505 9 267 1.6 4.8 0.00 0.03 0.00 58 1017.6
20260507050504 9 5 1.6 4.8 0.00 0.05 0.00 58 1017.6
20260507050005 9 5 1.6 3.2 0.00 0.05 0.00 59 1017.6
20260507045504 9 5 1.6 3.2 0.00 0.05 0.05 59 1017.6
20260507044504 9 5 1.6 3.2 0.00 0.05 0.05 60 1017.7
20260507044005 9 5 1.6 3.2 0.00 0.05 0.05 60 1017.7
20260507043504 9 5 1.6 3.2 0.00 0.05 0.05 59 1017.7
20260507043004 9 5 1.6 3.2 0.00 0.05 0.05 60 1017.7
20260507042504 9 5 1.6 3.2 0.00 0.05 0.05 59 1017.5
20260507042004 9 5 1.6 3.2 0.00 0.05 0.05 60 1017.5
20260507040504 10 5 1.6 3.2 0.00 0.05 0.05 55 1017.8
20260507040005 10 5 1.6 3.2 0.00 0.05 0.05 54 1017.9
20260507035505 10 5 0.0 3.2 0.00 0.05 0.05 53 1018.0
20260507035004 10 5 1.6 3.2 0.00 0.05 0.05 52 1018.0
20260507034004 10 5 0.0 1.6 0.00 0.05 0.05 50 1017.9
20260507033504 10 5 0.0 1.6 0.00 0.05 0.05 50 1017.9
20260507032504 11 5 0.0 3.2 0.00 0.05 0.05 48 1017.7
20260507032005 11 5 1.6 3.2 0.00 0.05 0.05 46 1017.8
20260507031504 11 5 1.6 1.6 0.00 0.05 0.05 42 1017.8
20260507031004 11 5 0.0 3.2 0.00 0.05 0.05 42 1017.7
20260507030005 11 5 1.6 3.2 0.00 0.05 0.05 42 1017.8
20260507025504 11 5 1.6 1.6 0.00 0.05 0.05 41 1017.8
20260507024004 11 5 1.6 3.2 0.00 0.05 0.05 42 1017.7
20260507023504 11 5 0.0 1.6 0.00 0.05 0.05 42 1017.5
20260507023005 11 5 0.0 1.6 0.00 0.05 0.05 42 1017.5
20260507022504 11 5 0.0 1.6 0.00 0.05 0.05 42 1017.5
20260507022004 11 5 0.0 0.0 0.00 0.05 0.05 42 1017.4
20260507021504 11 5 0.0 0.0 0.00 0.05 0.05 42 1017.4
20260507021004 11 5 0.0 0.0 0.00 0.05 0.05 42 1017.4
20260507020504 11 5 0.0 0.0 0.00 0.05 0.05 42 1017.4
20260507020004 12 5 0.0 0.0 0.00 0.05 0.05 42 1017.4
20260507015504 12 5 0.0 0.0 0.00 0.05 0.05 42 1017.4
20260507015004 12 5 0.0 1.6 0.00 0.05 0.05 42 1017.3
20260507014004 12 5 0.0 1.6 0.00 0.05 0.05 42 1017.3
20260507013504 12 5 0.0 1.6 0.00 0.05 0.05 40 1017.2
20260507013004 12 5 0.0 1.6 0.00 0.05 0.05 39 1017.2
20260507012504 13 5 0.0 4.8 0.00 0.05 0.05 39 1017.0
20260507012004 13 5 0.0 4.8 0.00 0.05 0.05 39 1016.9
20260507011504 13 5 1.6 4.8 0.00 0.05 0.05 37 1016.9
20260507011004 13 5 1.6 3.2 0.00 0.05 0.05 37 1016.9
20260507010005 14 5 1.6 8.0 0.00 0.05 0.05 36 1016.8
20260507005505 15 49 1.6 4.8 0.00 0.05 0.05 35 1016.8
20260507005006 15 68 1.6 8.0 0.00 0.05 0.05 35 1016.7
20260507004505 15 61 1.6 8.0 0.00 0.05 0.05 34 1016.7
20260507004005 15 46 0.0 4.8 0.00 0.05 0.05 34 1016.7
20260507003505 15 46 1.6 4.8 0.00 0.05 0.05 35 1016.7
20260507003005 15 49 1.6 4.8 0.00 0.05 0.05 34 1016.8
20260507002505 15 49 1.6 11.3 0.00 0.05 0.05 34 1016.8
20260507001505 15 60 3.2 11.3 0.00 0.05 0.05 35 1016.6
20260507000505 15 51 3.2 11.3 0.00 0.05 0.05 34 1016.6
20260506235005 15 342 6.4 19.3 0.00 0.05 0.05 33 1016.8
20260506234505 15 13 3.2 9.7 0.00 0.05 0.05 34 1016.9
20260506234005 15 78 1.6 9.7 0.00 0.05 0.05 33 1016.8
20260506233005 16 333 3.2 16.1 0.00 0.05 0.05 35 1016.8
20260506232505 16 331 1.6 19.3 0.00 0.05 0.05 34 1016.8
20260506232005 16 325 8.0 19.3 0.00 0.05 0.05 33 1016.7
20260506231505 16 309 4.8 19.3 0.00 0.05 0.05 34 1016.8
20260506231005 16 0 3.2 14.5 0.00 0.05 0.05 33 1016.7
20260506230505 16 341 4.8 14.5 0.00 0.05 0.05 34 1016.7
20260506230005 16 7 3.2 12.9 0.00 0.05 0.05 34 1016.7
20260506225505 16 63 3.2 12.9 0.00 0.05 0.05 34 1016.6
20260506224504 16 58 4.8 9.7 0.00 0.05 0.05 33 1016.8
20260506223505 16 61 4.8 16.1 0.00 0.05 0.05 34 1016.8
20260506222005 16 325 3.2 9.7 0.00 0.05 0.05 35 1016.7
20260506221505 15 330 3.2 19.3 0.00 0.05 0.05 34 1016.8
20260506221005 15 267 4.8 19.3 0.00 0.05 0.05 34 1016.9
20260506220005 15 312 6.4 19.3 0.00 0.05 0.05 34 1016.9
20260506215505 15 306 8.0 19.3 0.00 0.05 0.05 34 1017.1
20260506215006 15 348 1.6 16.1 0.00 0.05 0.05 36 1017.0
20260506214505 15 339 6.4 16.1 0.00 0.05 0.05 35 1017.0
20260506213505 15 307 8.0 22.5 0.00 0.05 0.05 33 1017.1
20260506213005 16 66 3.2 14.5 0.00 0.05 0.05 35 1017.1
20260506212505 15 339 4.8 14.5 0.00 0.05 0.05 36 1017.2
20260506212005 15 350 4.8 12.9 0.00 0.05 0.05 37 1017.2
20260506211504 15 39 4.8 12.9 0.00 0.05 0.05 35 1017.1
20260506211005 15 352 4.8 22.5 0.00 0.05 0.05 36 1017.3
20260506210505 15 324 3.2 22.5 0.00 0.05 0.05 36 1017.3
20260506210005 15 339 6.4 14.5 0.00 0.05 0.05 34 1017.5
20260506205505 15 54 3.2 19.3 0.00 0.05 0.05 37 1017.7
20260506205005 15 13 3.2 19.3 0.00 0.05 0.05 36 1017.7
20260506204505 15 309 8.0 19.3 0.00 0.05 0.05 35 1017.7
20260506204005 15 33 3.2 9.7 0.00 0.05 0.05 35 1017.8
20260506203505 15 77 3.2 11.3 0.00 0.05 0.05 36 1017.8
20260506203005 15 30 1.6 20.9 0.00 0.05 0.05 34 1017.9
20260506202505 15 325 6.4 20.9 0.00 0.05 0.05 36 1017.9
20260506202005 15 284 1.6 16.1 0.00 0.05 0.05 39 1017.9
20260506201505 15 321 4.8 16.1 0.00 0.05 0.05 36 1017.9
20260506201005 16 324 4.8 16.1 0.00 0.05 0.05 36 1018.0
20260506200505 15 36 3.2 9.7 0.00 0.05 0.05 34 1018.1
20260506200005 15 274 3.2 9.7 0.00 0.05 0.05 37 1018.0
20260506195505 15 334 3.2 9.7 0.00 0.05 0.05 39 1018.1
20260506195005 15 318 6.4 9.7 0.00 0.05 0.05 37 1018.1
20260506194505 15 326 3.2 9.7 0.00 0.05 0.05 37 1018.1
20260506194005 15 19 3.2 14.5 0.00 0.05 0.05 36 1018.4
20260506193505 14 26 3.2 14.5 0.00 0.05 0.05 38 1018.5
20260506193005 14 290 3.2 11.3 0.00 0.05 0.05 37 1018.5
20260506192505 14 55 3.2 14.5 0.00 0.05 0.05 35 1018.3
20260506192005 13 309 1.6 14.5 0.00 0.08 0.05 37 1018.5
20260506191504 13 82 1.6 19.3 0.00 0.08 0.05 37 1018.6
20260506191005 13 318 4.8 19.3 0.00 0.08 0.05 37 1018.5
20260506190505 15 336 4.8 19.3 0.00 0.08 0.05 37 1018.5
20260506190006 14 24 1.6 9.7 0.00 0.08 0.05 38 1018.6
20260506185005 13 73 3.2 8.0 0.00 0.08 0.05 37 1018.6
20260506184505 13 338 3.2 12.9 0.00 0.08 0.05 42 1018.8
20260506184005 13 291 4.8 12.9 0.00 0.08 0.05 41 1018.9
20260506183505 13 47 3.2 19.3 0.00 0.08 0.05 38 1018.9
20260506182504 13 330 4.8 9.7 0.00 0.08 0.05 41 1018.8
20260506182005 13 319 1.6 9.7 0.00 0.08 0.05 40 1018.9
20260506181504 13 321 3.2 9.7 0.00 0.08 0.05 39 1018.9
20260506180505 12 320 3.2 11.3 0.00 0.08 0.05 41 1018.9
20260506180005 13 329 8.0 11.3 0.00 0.08 0.05 39 1019.0
20260506175505 13 313 3.2 8.0 0.00 0.08 0.05 41 1019.0
20260506175004 13 323 3.2 11.3 0.00 0.08 0.05 37 1019.0
20260506174505 13 340 1.6 11.3 0.00 0.08 0.05 39 1019.0
20260506173505 13 0 1.6 4.8 0.00 0.08 0.05 38 1019.2
20260506173005 13 11 3.2 4.8 0.00 0.08 0.05 41 1019.2
20260506172505 13 338 1.6 12.9 0.00 0.08 0.05 41 1019.2
20260506171504 13 351 3.2 11.3 0.00 0.08 0.05 41 1019.2
20260506171005 13 352 3.2 8.0 0.00 0.08 0.05 40 1019.1
20260506170505 13 63 3.2 11.3 0.00 0.08 0.05 39 1019.1
20260506170005 13 46 3.2 11.3 0.00 0.10 0.05 41 1019.1
20260506165505 12 320 3.2 8.0 0.00 0.10 0.05 44 1019.2
20260506164005 12 309 4.8 16.1 0.00 0.15 0.05 41 1019.1
20260506163005 12 72 3.2 9.7 0.00 0.23 0.05 42 1019.0
20260506162505 12 305 1.6 16.1 0.00 0.28 0.05 41 1018.9
20260506161005 13 323 1.6 9.7 0.00 0.30 0.05 42 1018.7
20260506160505 12 318 3.2 9.7 0.00 0.33 0.05 41 1018.8